N551FR EGCC-LEIB

Flight info

Callsign N551FR
Flight time N/A
Altitude 29000
Route LISTO P18 TELBA L151 KIDLI/N0461F410 UN859 SOPIL DCT BALAN DCT EVPOK DCT NARAK DCT GAI DCT LOMRA DCT ROCAN DCT PUMAL N859 BCN Z174 CORDA
Aircraft GLF5/M-SFGHIRWXY/S

Departure

Time 2026-05-08 07:54
Airport Manchester Airport (EGCC)

Arrival

Time N/A
Airport Ibiza Airport (LEIB)
Time Latitude Longitude Altitude Speed Heading
2026-05-08 07:26 53.36951 -2.29078 224 ft 0 kts 310°
2026-05-08 07:41 53.36951 -2.29079 224 ft 0 kts 310°
2026-05-08 07:42 53.36948 -2.29071 224 ft 2 kts 310°
2026-05-08 07:43 53.36938 -2.29052 224 ft 2 kts 310°
2026-05-08 07:43 53.36929 -2.29033 224 ft 2 kts 310°
2026-05-08 07:43 53.36919 -2.29014 224 ft 2 kts 310°
2026-05-08 07:43 53.36912 -2.29002 224 ft 2 kts 301°
2026-05-08 07:44 53.36910 -2.28978 224 ft 2 kts 248°
2026-05-08 07:44 53.36915 -2.28965 224 ft 0 kts 225°
2026-05-08 07:48 53.36902 -2.28988 224 ft 10 kts 227°
2026-05-08 07:48 53.36830 -2.29072 224 ft 12 kts 188°
2026-05-08 07:48 53.36742 -2.29033 223 ft 14 kts 137°
2026-05-08 07:48 53.36659 -2.28933 220 ft 15 kts 152°
2026-05-08 07:49 53.36600 -2.28794 217 ft 15 kts 115°
2026-05-08 07:49 53.36538 -2.28643 214 ft 15 kts 134°
2026-05-08 07:49 53.36461 -2.28513 213 ft 15 kts 136°
2026-05-08 07:49 53.36395 -2.28404 215 ft 11 kts 135°
2026-05-08 07:50 53.36346 -2.28321 218 ft 7 kts 135°
2026-05-08 07:50 53.36322 -2.28282 220 ft 2 kts 135°
2026-05-08 07:50 53.36269 -2.28193 226 ft 21 kts 136°
2026-05-08 07:50 53.36172 -2.28029 233 ft 17 kts 135°
2026-05-08 07:51 53.36098 -2.27901 236 ft 13 kts 133°
2026-05-08 07:51 53.36021 -2.27832 238 ft 14 kts 178°
2026-05-08 07:51 53.35907 -2.27847 238 ft 16 kts 185°
2026-05-08 07:51 53.35802 -2.27864 238 ft 15 kts 186°
2026-05-08 07:52 53.35653 -2.27889 238 ft 26 kts 185°
2026-05-08 07:52 53.35477 -2.27921 238 ft 23 kts 199°
2026-05-08 07:52 53.35353 -2.28085 236 ft 22 kts 225°
2026-05-08 07:52 53.35245 -2.28274 233 ft 22 kts 231°
2026-05-08 07:53 53.35146 -2.28477 229 ft 22 kts 231°
2026-05-08 07:53 53.35048 -2.28674 226 ft 22 kts 234°
2026-05-08 07:53 53.34938 -2.28742 222 ft 16 kts 122°
2026-05-08 07:53 53.34871 -2.28608 223 ft 14 kts 129°
2026-05-08 07:54 53.34894 -2.28490 225 ft 9 kts 51°
2026-05-08 07:54 53.35023 -2.28221 232 ft 66 kts 51°
2026-05-08 07:54 53.35475 -2.27283 256 ft 135 kts 52°
2026-05-08 07:54 53.36090 -2.26029 867 ft 139 kts 52°
2026-05-08 07:55 53.36716 -2.24767 1581 ft 151 kts 52°
2026-05-08 07:55 53.37241 -2.23169 2167 ft 174 kts 87°
2026-05-08 07:55 53.36866 -2.21182 2841 ft 201 kts 129°
2026-05-08 07:55 53.35876 -2.19112 3194 ft 254 kts 129°
2026-05-08 07:56 53.34511 -2.17333 4387 ft 261 kts 163°
2026-05-08 07:56 53.32716 -2.16966 4970 ft 265 kts 183°
2026-05-08 07:56 53.30880 -2.17259 4988 ft 261 kts 186°
2026-05-08 07:56 53.29077 -2.17559 4984 ft 258 kts 186°
2026-05-08 07:57 53.27307 -2.17847 4987 ft 257 kts 186°
2026-05-08 07:57 53.25509 -2.18135 4982 ft 257 kts 186°
2026-05-08 07:57 53.23640 -2.18433 5556 ft 282 kts 185°
2026-05-08 07:57 53.21870 -2.18713 7660 ft 259 kts 186°
2026-05-08 07:58 53.20041 -2.19002 8754 ft 274 kts 186°
2026-05-08 07:58 53.18157 -2.19298 10113 ft 278 kts 187°
2026-05-08 07:58 53.16236 -2.19602 11431 ft 282 kts 187°
2026-05-08 07:58 53.14303 -2.19907 12601 ft 291 kts 187°
2026-05-08 07:59 53.12110 -2.20255 12690 ft 338 kts 186°
2026-05-08 07:59 53.09691 -2.20633 13552 ft 355 kts 186°
2026-05-08 07:59 53.07264 -2.21012 14961 ft 356 kts 186°
2026-05-08 07:59 53.04771 -2.21401 16134 ft 363 kts 186°
2026-05-08 08:00 53.02255 -2.21794 17332 ft 369 kts 186°
2026-05-08 08:00 52.99748 -2.22184 18527 ft 374 kts 186°
2026-05-08 08:00 52.97154 -2.22586 19709 ft 380 kts 187°
2026-05-08 08:00 52.94503 -2.22998 20807 ft 388 kts 187°
2026-05-08 08:01 52.91798 -2.23417 21961 ft 394 kts 187°
2026-05-08 08:01 52.89044 -2.23843 23021 ft 401 kts 187°
2026-05-08 08:01 52.86282 -2.24303 24086 ft 406 kts 190°
2026-05-08 08:01 52.83530 -2.25272 24973 ft 414 kts 195°
2026-05-08 08:02 52.80681 -2.26384 25943 ft 422 kts 195°
2026-05-08 08:02 52.77817 -2.27493 26763 ft 431 kts 195°
2026-05-08 08:02 52.74881 -2.28623 27649 ft 438 kts 195°
2026-05-08 08:02 52.71868 -2.29779 28498 ft 446 kts 195°
2026-05-08 08:03 52.68787 -2.30796 29006 ft 447 kts 188°
2026-05-08 08:03 52.65680 -2.30320 29038 ft 456 kts 167°
2026-05-08 08:03 52.62779 -2.28099 29046 ft 466 kts 148°
2026-05-08 08:04 52.57420 -2.22013 29043 ft 467 kts 148°
2026-05-08 08:04 52.52073 -2.16147 29049 ft 465 kts 148°
2026-05-08 08:05 52.46661 -2.10255 29045 ft 465 kts 148°
2026-05-08 08:05 52.41271 -2.04407 29053 ft 465 kts 148°
2026-05-08 08:06 52.35875 -1.98567 29047 ft 465 kts 148°
2026-05-08 08:06 52.30469 -1.92739 29048 ft 465 kts 148°
2026-05-08 08:07 52.25060 -1.86925 29049 ft 465 kts 148°
2026-05-08 08:07 52.19669 -1.81145 29048 ft 465 kts 148°
2026-05-08 08:08 52.14244 -1.75347 29050 ft 464 kts 147°
2026-05-08 08:08 52.08860 -1.69608 29040 ft 464 kts 147°
2026-05-08 08:09 52.03437 -1.63831 29046 ft 464 kts 147°
2026-05-08 08:09 51.98056 -1.58132 29056 ft 464 kts 147°
2026-05-08 08:10 51.92623 -1.52400 29051 ft 463 kts 147°
2026-05-08 08:10 51.87280 -1.46780 29053 ft 463 kts 147°
2026-05-08 08:11 51.81805 -1.41030 29622 ft 473 kts 147°
2026-05-08 08:11 51.79078 -1.38173 30550 ft 473 kts 147°
2026-05-08 08:11 51.76117 -1.35667 30886 ft 482 kts 161°
2026-05-08 08:11 51.72978 -1.34026 31814 ft 479 kts 164°
2026-05-08 08:12 51.69770 -1.32391 32664 ft 478 kts 164°
2026-05-08 08:12 51.66587 -1.30775 33393 ft 479 kts 165°
2026-05-08 08:12 51.63436 -1.29177 34092 ft 479 kts 165°
2026-05-08 08:12 51.60253 -1.27567 34833 ft 478 kts 165°
2026-05-08 08:13 51.57129 -1.25990 35325 ft 476 kts 165°
2026-05-08 08:13 51.53964 -1.24392 35820 ft 472 kts 165°
2026-05-08 08:13 51.50866 -1.22833 36247 ft 472 kts 165°
2026-05-08 08:13 51.47794 -1.20998 36786 ft 473 kts 158°
2026-05-08 08:14 51.44779 -1.18756 37377 ft 472 kts 157°
2026-05-08 08:14 51.41838 -1.16581 37963 ft 471 kts 158°
2026-05-08 08:14 51.38866 -1.14392 38519 ft 470 kts 158°
2026-05-08 08:14 51.35911 -1.12220 39053 ft 469 kts 158°
2026-05-08 08:15 51.32956 -1.10054 39511 ft 469 kts 158°
2026-05-08 08:15 51.29973 -1.07869 39968 ft 468 kts 158°
2026-05-08 08:15 51.27025 -1.05713 40422 ft 468 kts 158°
2026-05-08 08:15 51.24082 -1.03563 40816 ft 468 kts 158°
2026-05-08 08:16 51.21161 -1.01433 41032 ft 466 kts 158°
2026-05-08 08:16 51.18154 -0.99246 41051 ft 478 kts 158°
2026-05-08 08:16 51.15091 -0.97017 41062 ft 491 kts 158°
2026-05-08 08:16 51.11991 -0.94767 41056 ft 503 kts 157°
2026-05-08 08:17 51.08757 -0.92421 41055 ft 515 kts 158°
2026-05-08 08:17 51.05472 -0.90044 41052 ft 526 kts 157°
2026-05-08 08:17 51.02081 -0.87592 41056 ft 536 kts 157°
2026-05-08 08:18 50.95259 -0.82673 41044 ft 546 kts 157°
2026-05-08 08:18 50.88325 -0.77690 41047 ft 546 kts 157°
2026-05-08 08:19 50.81699 -0.71790 41066 ft 547 kts 148°
2026-05-08 08:19 50.75322 -0.65290 41052 ft 548 kts 149°
2026-05-08 08:20 50.68896 -0.58771 41050 ft 548 kts 148°
2026-05-08 08:20 50.62508 -0.52311 41047 ft 548 kts 148°
2026-05-08 08:21 50.56126 -0.45880 41050 ft 548 kts 148°
2026-05-08 08:21 50.49694 -0.39419 41048 ft 548 kts 148°
2026-05-08 08:22 50.43266 -0.32982 41043 ft 548 kts 149°
2026-05-08 08:22 50.36834 -0.26563 41047 ft 548 kts 149°
2026-05-08 08:23 50.30452 -0.20216 41048 ft 547 kts 149°
2026-05-08 08:23 50.24018 -0.13836 41047 ft 547 kts 149°
2026-05-08 08:24 50.17620 -0.07512 41047 ft 547 kts 149°
2026-05-08 08:24 50.11200 -0.01248 41034 ft 546 kts 153°
2026-05-08 08:24 50.07690 0.00847 41070 ft 539 kts 166°
2026-05-08 08:25 50.04035 0.02339 41040 ft 540 kts 167°
2026-05-08 08:25 49.96776 0.05211 41040 ft 541 kts 167°
2026-05-08 08:26 49.89478 0.08078 41049 ft 541 kts 168°
2026-05-08 08:26 49.82174 0.10936 41043 ft 542 kts 168°
2026-05-08 08:27 49.74931 0.13763 41037 ft 542 kts 168°
2026-05-08 08:27 49.67593 0.16626 41036 ft 542 kts 167°
2026-05-08 08:28 49.60334 0.19556 41039 ft 542 kts 167°
2026-05-08 08:28 49.53063 0.22481 41037 ft 542 kts 167°
2026-05-08 08:29 49.45820 0.25385 41034 ft 542 kts 167°
2026-05-08 08:29 49.38496 0.28311 41035 ft 542 kts 167°
2026-05-08 08:30 49.31260 0.31197 41029 ft 542 kts 167°
2026-05-08 08:30 49.20350 0.35794 41017 ft 542 kts 166°
2026-05-08 08:31 49.13122 0.38831 41018 ft 542 kts 166°
2026-05-08 08:31 49.05848 0.41879 41009 ft 543 kts 166°
2026-05-08 08:32 48.98594 0.44910 41012 ft 542 kts 167°
2026-05-08 08:32 48.91307 0.47945 41014 ft 543 kts 166°
2026-05-08 08:33 48.84011 0.50974 41018 ft 543 kts 166°
2026-05-08 08:33 48.76727 0.53945 41015 ft 542 kts 167°
2026-05-08 08:34 48.69437 0.56803 41011 ft 543 kts 167°
2026-05-08 08:34 48.62125 0.59664 41011 ft 543 kts 167°
2026-05-08 08:35 48.54813 0.62516 41019 ft 543 kts 167°
2026-05-08 08:35 48.47527 0.65436 41012 ft 543 kts 167°
2026-05-08 08:36 48.40203 0.68414 41004 ft 543 kts 167°
2026-05-08 08:36 48.32921 0.71365 41010 ft 543 kts 167°
2026-05-08 08:37 48.25600 0.74322 41010 ft 543 kts 167°
2026-05-08 08:37 48.18311 0.77198 41010 ft 543 kts 168°
2026-05-08 08:38 48.10981 0.80080 41004 ft 543 kts 168°
2026-05-08 08:38 48.03641 0.82955 41002 ft 543 kts 168°
2026-05-08 08:39 47.96326 0.85814 41007 ft 543 kts 168°
2026-05-08 08:39 47.89045 0.88650 41003 ft 543 kts 168°
2026-05-08 08:40 47.81767 0.91477 40998 ft 544 kts 168°
2026-05-08 08:40 47.74417 0.94325 41000 ft 543 kts 168°
2026-05-08 08:41 47.67104 0.97148 40990 ft 543 kts 168°
2026-05-08 08:41 47.59801 0.99961 41002 ft 543 kts 168°
2026-05-08 08:42 47.52496 1.02765 40992 ft 543 kts 168°
2026-05-08 08:42 47.45198 1.05559 40987 ft 543 kts 168°
2026-05-08 08:43 47.41520 1.06352 40970 ft 536 kts 181°
2026-05-08 08:43 47.37788 1.06319 40978 ft 535 kts 184°
2026-05-08 08:43 47.30346 1.06148 40982 ft 536 kts 184°
2026-05-08 08:44 47.22922 1.05975 40980 ft 537 kts 184°
2026-05-08 08:44 47.15461 1.05800 40981 ft 537 kts 184°
2026-05-08 08:45 47.07984 1.05626 40968 ft 536 kts 184°
2026-05-08 08:45 47.00514 1.05416 40970 ft 536 kts 185°
2026-05-08 08:46 46.93107 1.05095 40967 ft 536 kts 185°
2026-05-08 08:46 46.85654 1.04776 40965 ft 536 kts 185°
2026-05-08 08:47 46.78205 1.04460 40959 ft 536 kts 185°
2026-05-08 08:47 46.70786 1.04144 40964 ft 536 kts 185°
2026-05-08 08:48 46.63343 1.03829 40956 ft 536 kts 185°
2026-05-08 08:48 46.55881 1.03513 40956 ft 536 kts 185°
2026-05-08 08:49 46.48480 1.04384 40981 ft 540 kts 170°
2026-05-08 08:49 46.41135 1.06839 40952 ft 542 kts 170°
2026-05-08 08:50 46.33793 1.09289 40963 ft 543 kts 170°
2026-05-08 08:50 46.26467 1.11727 40954 ft 543 kts 170°
2026-05-08 08:51 46.19080 1.14180 40955 ft 543 kts 170°
2026-05-08 08:51 46.11703 1.16621 40956 ft 543 kts 170°
2026-05-08 08:52 46.04373 1.19041 40965 ft 543 kts 170°
2026-05-08 08:52 45.97001 1.21468 40961 ft 543 kts 170°
2026-05-08 08:53 45.89621 1.23891 40964 ft 543 kts 170°
2026-05-08 08:53 45.82268 1.26298 40962 ft 543 kts 170°
2026-05-08 08:54 45.74918 1.28699 40960 ft 543 kts 170°
2026-05-08 08:54 45.67568 1.31092 40961 ft 543 kts 170°
2026-05-08 08:55 45.60185 1.33490 40956 ft 543 kts 170°
2026-05-08 08:55 45.52821 1.35875 40951 ft 543 kts 170°
2026-05-08 08:56 45.45466 1.38251 40956 ft 543 kts 170°
2026-05-08 08:56 45.38117 1.40619 40955 ft 543 kts 171°
2026-05-08 08:57 45.30737 1.42990 40976 ft 543 kts 170°
2026-05-08 08:57 45.23424 1.45335 40961 ft 543 kts 171°
2026-05-08 08:58 45.16048 1.47691 40962 ft 543 kts 171°
2026-05-08 08:58 45.08667 1.50043 40968 ft 543 kts 171°
2026-05-08 08:59 45.01311 1.52382 40964 ft 542 kts 171°
2026-05-08 08:59 44.93970 1.54710 40977 ft 543 kts 171°
2026-05-08 09:00 44.86569 1.57051 40985 ft 543 kts 171°
2026-05-08 09:00 44.79196 1.59377 40962 ft 543 kts 171°
2026-05-08 09:01 44.71829 1.61694 40954 ft 542 kts 171°
2026-05-08 09:01 44.64461 1.64006 40974 ft 542 kts 171°
2026-05-08 09:02 44.57087 1.66314 40957 ft 541 kts 172°
2026-05-08 09:02 44.49744 1.68606 40929 ft 541 kts 172°
2026-05-08 09:03 44.42455 1.70875 40973 ft 541 kts 172°
2026-05-08 09:03 44.35121 1.73153 40949 ft 540 kts 172°
2026-05-08 09:04 44.27756 1.75326 40975 ft 537 kts 175°
2026-05-08 09:04 44.20351 1.76923 40963 ft 536 kts 175°
2026-05-08 09:05 44.12973 1.78549 40968 ft 537 kts 175°
2026-05-08 09:05 44.05603 1.80174 40968 ft 537 kts 175°
2026-05-08 09:06 43.98232 1.81794 40929 ft 537 kts 175°
2026-05-08 09:06 43.90850 1.82868 40951 ft 532 kts 181°
2026-05-08 09:07 43.83508 1.83574 40953 ft 532 kts 181°
2026-05-08 09:07 43.76126 1.84291 40951 ft 531 kts 181°
2026-05-08 09:08 43.68805 1.84998 40956 ft 531 kts 181°
2026-05-08 09:08 43.61436 1.85710 40948 ft 530 kts 181°
2026-05-08 09:09 43.54096 1.86417 40954 ft 529 kts 181°
2026-05-08 09:09 43.46730 1.87125 40938 ft 529 kts 181°
2026-05-08 09:10 43.39451 1.87823 40939 ft 528 kts 181°
2026-05-08 09:10 43.32117 1.88525 40950 ft 527 kts 181°
2026-05-08 09:11 43.24774 1.89228 40947 ft 526 kts 181°
2026-05-08 09:11 43.17486 1.89923 40952 ft 525 kts 181°
2026-05-08 09:12 43.10222 1.90615 40958 ft 525 kts 181°
2026-05-08 09:12 43.02956 1.91305 40936 ft 523 kts 181°
2026-05-08 09:13 42.95679 1.91996 40949 ft 523 kts 181°
2026-05-08 09:13 42.88470 1.92676 40964 ft 521 kts 181°
2026-05-08 09:14 42.81228 1.93360 40972 ft 521 kts 181°
2026-05-08 09:14 42.73955 1.94043 41001 ft 521 kts 182°
2026-05-08 09:15 42.66716 1.94746 41000 ft 523 kts 180°
2026-05-08 09:15 42.59506 1.96239 40993 ft 525 kts 177°
2026-05-08 09:16 42.52271 1.97708 41011 ft 525 kts 177°
2026-05-08 09:16 42.45058 1.99161 41005 ft 523 kts 178°
2026-05-08 09:17 42.37861 2.00608 41003 ft 523 kts 178°
2026-05-08 09:17 42.30677 2.01434 41005 ft 519 kts 182°
2026-05-08 09:18 42.23483 2.02101 40997 ft 519 kts 182°
2026-05-08 09:18 42.16292 2.02782 40990 ft 519 kts 182°